Location: Newark
(52.3735°N, 16.9806°E)
Time: 13:33:10
(UTC+00:00)

Envisat - Pass Details

Date: 17 September 2021
Orbit: 764 x 766 km, 98.2° (Epoch: 23 October)

Event Time Altitude Azimuth Distance (km) Brightness Sun altitude
Rises 03:52:13 0° 17° (NNE) 3,247 6.7 -6.5°
Reaches altitude 10° 03:54:35 10° 22° (NNE) 2,316 6.0 -6.2°
Maximum altitude 03:59:36 55° 100° (E) 920 3.9 -5.4°
Drops below altitude 10° 04:04:34 10° 178° (S) 2,297 5.4 -4.7°
Sets 04:06:54 0° 183° (S) 3,219 6.1 -4.3°
